Location: Bluff Heights
(33.7692°N, 118.1592°W)
Time: 12:52:36
(UTC+00:00)

S-56A Canister/Altair - Pass Details

Date: 30 July 2021
Orbit: 632 x 2500 km, 38.9° (Epoch: 25 September)

Event Time Altitude Azimuth Distance (km) Brightness Sun altitude
Rises 06:53:00 0° 290° (WNW) 5,861 12.5 -35.5°
Reaches altitude 10° 06:58:02 10° 279° (W) 4,599 11.7 -35.8°
Enters shadow 07:05:52 24° 241° (WSW) 3,076 10.4 -36.3°
